Deelen, Netherlands

9:52 AM CEST on March 28, 2017 (GMT +0200)
Deelen Air Base

Weather History for EHDL - November, 2012

Change the Weather History Date:

Monday, November 12, 2012

  Actual Average Record
Temperature  
Mean Temperature 44 °F -  
Max Temperature 46 °F 44 °F 57 °F (2015)
Min Temperature 41 °F 35 °F 27 °F (2016)
Degree Days  
Heating Degree Days 22    
Moisture  
Dew Point 41 °F    
Average Humidity 89    
Maximum Humidity 100    
Minimum Humidity 81    
Precipitation  
Precipitation 0.00 in - - ()
Sea Level Pressure  
Sea Level Pressure 30.21 in    
Wind  
Wind Speed 9 mph ()    
Max Wind Speed 13 mph    
Max Gust Speed -    
Visibility 4.8 miles    
Events      
Averages and records for this station are not official NWS values.
T = Trace of Precipitation, MM = Missing Value Source: Averaged Metar Reports

Daily Weather History Graph

Daily Weather History Graph

Search for Another Location

Airport or City:

Trip Planner

Search our weather history database for the weather conditions in past years. The results will help you decide how hot, cold, wet, or windy it might be!

Date:

Astronomy

Nov. 12, 2012 Rise Set
Actual Time 7:51 AM CET 4:48 PM CET
Civil Twilight 7:14 AM CET 5:25 PM CET
Nautical Twilight 6:33 AM CET 6:06 PM CET
Astronomical Twilight 5:53 AM CET 6:46 PM CET
Moon 5:49 AM CET (11/12) 3:48 PM CET (11/12)
Length of Visible Light 10h 11m
Length of Day
8h 57m
Waning Crescent, 3% of the Moon is Illuminated
Nov 12
Waning Crescent
Nov 13
New
Nov 20
First Quarter
Nov 28
Full
Dec 6
Last Quarter

Hourly Weather History & Observations

Time (CET) Temp. Windchill Dew Point Humidity Pressure Visibility Wind Dir Wind Speed Gust Speed Precip Events Conditions
12:25 AM 44.6 °F 39.2 °F 42.8 °F 93% 30.09 in 3.7 mi SW 10.4 mph - N/A   Overcast
12:55 AM 44.6 °F 40.7 °F 42.8 °F 93% 30.09 in 3.1 mi SW 6.9 mph - N/A   Overcast
1:25 AM 44.6 °F 40.2 °F 42.8 °F 93% 30.09 in - SW 8.1 mph - N/A   Overcast
1:55 AM 44.6 °F 40.2 °F 42.8 °F 93% 30.09 in - SW 8.1 mph - N/A   Overcast
2:25 AM 44.6 °F 39.7 °F 42.8 °F 93% 30.09 in 3.1 mi SW 9.2 mph - N/A   Overcast
2:55 AM 44.6 °F 40.7 °F 42.8 °F 93% 30.12 in - SW 6.9 mph - N/A   Overcast
3:25 AM 44.6 °F 40.2 °F 42.8 °F 93% 30.12 in - SW 8.1 mph - N/A   Overcast
3:55 AM 44.6 °F 39.7 °F 42.8 °F 93% 30.12 in 3.1 mi SSW 9.2 mph - N/A   Overcast
4:25 AM 44.6 °F 39.7 °F 42.8 °F 93% 30.12 in 3.1 mi SSW 9.2 mph - N/A   Overcast
4:55 AM 44.6 °F 39.2 °F 41.0 °F 87% 30.12 in 3.1 mi SSW 10.4 mph - N/A   Overcast
5:25 AM 42.8 °F 38.0 °F 41.0 °F 93% 30.15 in - SSW 8.1 mph - N/A   Overcast
5:55 AM 42.8 °F 37.5 °F 41.0 °F 93% 30.15 in - SSW 9.2 mph - N/A   Overcast
6:25 AM 42.8 °F 38.0 °F 41.0 °F 93% 30.15 in - SSW 8.1 mph - N/A   Overcast
6:55 AM 41.0 °F 35.8 °F 41.0 °F 100% 30.15 in - SSW 8.1 mph - N/A   Mostly Cloudy
7:25 AM 41.0 °F 36.4 °F 39.2 °F 93% 30.15 in 1.8 mi SSW 6.9 mph - N/A   Mostly Cloudy
7:55 AM 41.0 °F 37.1 °F 39.2 °F 93% 30.18 in 1.5 mi SSW 5.8 mph - N/A   Mostly Cloudy
8:25 AM 41.0 °F 34.7 °F 41.0 °F 100% 30.18 in 1.3 mi SSW 10.4 mph - N/A   Overcast
8:55 AM 41.0 °F 34.7 °F 41.0 °F 100% 30.18 in 1.2 mi SW 10.4 mph - N/A   Overcast
9:25 AM 41.0 °F 35.2 °F 41.0 °F 100% 30.21 in 1.4 mi SSW 9.2 mph - N/A   Overcast
9:55 AM 42.8 °F 36.2 °F 41.0 °F 93% 30.21 in 1.7 mi SSW 12.7 mph - N/A   Overcast
10:25 AM 42.8 °F 36.6 °F 41.0 °F 93% 30.21 in - South 11.5 mph - N/A   Overcast
10:55 AM 42.8 °F 37.5 °F 41.0 °F 93% 30.21 in - SSW 9.2 mph - N/A   Overcast
11:25 AM 44.6 °F 39.7 °F 41.0 °F 87% 30.24 in 3.1 mi SW 9.2 mph - N/A   Overcast
11:55 AM 44.6 °F 40.2 °F 42.8 °F 93% 30.24 in 3.7 mi SSW 8.1 mph - N/A   Overcast
12:25 PM 46.4 °F 41.5 °F 41.0 °F 81% 30.24 in 4.3 mi SW 10.4 mph - N/A   Mostly Cloudy
12:55 PM 46.4 °F 41.5 °F 41.0 °F 81% 30.21 in 5.6 mi SSW 10.4 mph - N/A   Overcast
1:25 PM 46.4 °F 41.5 °F 42.8 °F 87% 30.24 in 6.2 mi SSW 10.4 mph - N/A   Overcast
1:55 PM 46.4 °F 41.1 °F 41.0 °F 81% 30.24 in 6.2 mi SSW 11.5 mph - N/A   Mostly Cloudy
2:25 PM 46.4 °F 41.1 °F 42.8 °F 87% 30.24 in 6.2 mi SSW 11.5 mph - N/A   Overcast
2:55 PM 46.4 °F 41.5 °F 41.0 °F 81% 30.24 in 6.2 mi SW 10.4 mph - N/A   Overcast
3:25 PM 46.4 °F 41.9 °F 41.0 °F 81% 30.24 in 6.2 mi SW 9.2 mph - N/A   Overcast
3:55 PM 46.4 °F 41.5 °F 41.0 °F 81% 30.24 in 6.2 mi SSW 10.4 mph - N/A   Overcast
4:25 PM 44.6 °F 38.8 °F 41.0 °F 87% 30.27 in 6.2 mi SSW 11.5 mph - N/A   Overcast
4:55 PM 44.6 °F 38.8 °F 41.0 °F 87% 30.27 in 6.2 mi SSW 11.5 mph - N/A   Overcast
5:25 PM 44.6 °F 39.7 °F 41.0 °F 87% 30.27 in 6.2 mi SSW 9.2 mph - N/A   Overcast
5:55 PM 44.6 °F 39.7 °F 41.0 °F 87% 30.27 in 6.2 mi South 9.2 mph - N/A   Mostly Cloudy
6:25 PM 42.8 °F 38.0 °F 39.2 °F 87% 30.27 in 6.2 mi South 8.1 mph - N/A   Unknown
6:55 PM 42.8 °F 38.6 °F 39.2 °F 87% 30.27 in 6.2 mi South 6.9 mph - N/A   Scattered Clouds
7:25 PM 42.8 °F 37.5 °F 39.2 °F 87% 30.27 in 6.2 mi South 9.2 mph - N/A   Scattered Clouds
7:55 PM 42.8 °F 36.6 °F 39.2 °F 87% 30.27 in 6.2 mi SSW 11.5 mph - N/A   Overcast
8:25 PM 42.8 °F 36.6 °F 39.2 °F 87% 30.27 in 6.2 mi South 11.5 mph - N/A   Overcast
8:55 PM 42.8 °F 37.0 °F 39.2 °F 87% 30.27 in 6.2 mi South 10.4 mph - N/A   Overcast
9:25 PM 42.8 °F 36.6 °F 39.2 °F 87% 30.27 in 6.2 mi South 11.5 mph - N/A   Overcast
9:55 PM 44.6 °F 38.8 °F 39.2 °F 81% 30.30 in 6.2 mi South 11.5 mph - N/A   Overcast
10:25 PM 44.6 °F 38.4 °F 39.2 °F 81% 30.30 in 6.2 mi SSW 12.7 mph - N/A   Overcast
10:55 PM 44.6 °F 39.2 °F 39.2 °F 81% 30.30 in 6.2 mi South 10.4 mph - N/A   Overcast
11:25 PM 44.6 °F 38.8 °F 39.2 °F 81% 30.30 in 6.2 mi South 11.5 mph - N/A   Overcast
11:55 PM 44.6 °F 38.8 °F 39.2 °F 81% 30.30 in 6.2 mi SSW 11.5 mph - N/A   Mostly Cloudy